Regional Weather Roundup
Issued by NWS Memphis, TN

Home | Current Version | Previous Version | Text Only | Print | Product List | Glossary On
Versions: 1 2 3 4 5 6 7 8 9 10 11 12 13 14 15 16 17 18 19 20 21 22 23 24 25 26 27 28 29 30 31 32 33 34 35 36 37 38 39 40 41 42 43 44 45 46 47 48 49 50
000
ASUS44 KMEG 220610
RWRMEG
MEMPHIS CWA HOURLY WEATHER ROUNDUP
NATIONAL WEATHER SERVICE MEMPHIS TN
1200 AM CST SUN JAN 22 2017

...WEST TENNESSEE...

CITY           SKY/WX    TMP DP  RH WIND       PRES   REMARKS
MEMPHIS INTL   CLOUDY    62  55  77 E6        29.44F
6HR MIN TEMP:  61; 6HR MAX TEMP:  65;

NWS MEMPHIS      N/A     60 N/A N/A MISG        N/A
JACKSON        PTCLDY    58  53  84 CALM      29.47F
6HR MIN TEMP:  57; 6HR MAX TEMP:  65;

BOLIVAR        CLEAR     57  54  88 CALM      29.46F
DYERSBURG      PTCLDY    57  50  77 SE7       29.46F
6HR MIN TEMP:  55; 6HR MAX TEMP:  64;

UNION CITY     CLEAR     57  54  88 CALM      29.46F
PARIS          CLEAR     52  48  87 CALM      29.49F
HUNTINGDON     CLEAR     54  50  87 E5        29.48F


...EASTERN ARKANSAS...

CITY           SKY/WX    TMP DP  RH WIND       PRES   REMARKS
JONESBORO      CLOUDY    57  52  83 SE6       29.44R
6HR MIN TEMP:  56; 6HR MAX TEMP:  62;

WEST MEMPHIS   CLOUDY    60  55  83 SE8       29.44S
6HR MIN TEMP:  58; 6HR MAX TEMP:  62;

BATESVILLE     CLOUDY    57  54  88 CALM      29.45F
6HR MIN TEMP:  57; 6HR MAX TEMP:  63;

NEWPORT        CLOUDY    57  54  89 S5        29.45R
6HR MIN TEMP:  57; 6HR MAX TEMP:  61;

WALNUT RIDGE   CLOUDY    55  52  88 NE12      29.41F
6HR MIN TEMP:  55; 6HR MAX TEMP:  61;

BLYTHEVILLE    CLOUDY    55  52  89 E9        29.44F
6HR MIN TEMP:  54; 6HR MAX TEMP:  63;

SEARCY         LGT RAIN  59  57  93 S12       29.47R
6HR MIN TEMP:  57; 6HR MAX TEMP:  62; 6HR PCP:  0.01;

STUTTGART      CLOUDY    57  48  72 E16       29.41F
6HR MIN TEMP:  57; 6HR MAX TEMP:  64; 6HR PCP:  0.42;

PINE BLUFF     CLOUDY    57  55  93 W5        29.42R
6HR MIN TEMP:  57; 6HR MAX TEMP:  63; 6HR PCP:  0.54;

MONTICELLO     CLOUDY    55  53  93 CALM      29.43F
6HR MIN TEMP:  55; 6HR MAX TEMP:  66; 6HR PCP:  0.70;



...NORTH MISSISSIPPI...

CITY           SKY/WX    TMP DP  RH WIND       PRES   REMARKS
TUPELO         CLOUDY    59  55  87 SE12      29.48R THUNDER FOG
6HR MIN TEMP:  58; 6HR MAX TEMP:  64;

OXFORD         CLOUDY    59  54  82 S14G22    29.51R THUNDER
BATESVILLE     TSTM      58  55  88 SW16G33   29.49R
6HR MIN TEMP:  58; 6HR MAX TEMP:  63;

TUNICA         LGT RAIN  59  55  88 SE3       29.45R
CLARKSDALE     CLOUDY    57  57 100 NW6       29.42F FOG
CORINTH        CLOUDY    57  54  88 E6        29.46F
GREENWOOD      LGT RAIN  57  53  86 SE7       29.44F
6HR MIN TEMP:  57; 6HR MAX TEMP:  65; 6HR PCP:  0.19;

STARKVILLE     HVY RAIN  59  59 100 W6G16     29.54R
GOLDEN TRIANGL CLOUDY    61  55  82 S9        29.45S
6HR MIN TEMP:  61; 6HR MAX TEMP:  64; 6HR PCP:  0.13;



...SOUTHEAST MISSOURI...

CITY           SKY/WX    TMP DP  RH WIND       PRES   REMARKS
KENNETT        CLOUDY    57  54  88 NE7       29.43F
WEST PLAINS    CLOUDY    56  54  93 NE7       29.45F
6HR MIN TEMP:  56; 6HR MAX TEMP:  61;

POPLAR BLUFF   MOCLDY    51  51 100 N3        29.46F FOG
6HR MIN TEMP:  50; 6HR MAX TEMP:  60;

CAPE GIRARDEAU PTCLDY    48  47  96 NE3       29.48F
6HR MIN TEMP:  48; 6HR MAX TEMP:  59;



...NORTHWEST ALABAMA...

CITY           SKY/WX    TMP DP  RH WIND       PRES   REMARKS
MUSCLE SHOALS  CLOUDY    57  52  83 E8        29.50F
6HR MIN TEMP:  55; 6HR MAX TEMP:  61;



...MIDDLE TENNESSEE...

CITY           SKY/WX    TMP DP  RH WIND       PRES   REMARKS
NASHVILLE      MOCLDY    55  50  83 SE10      29.54F
6HR MIN TEMP:  53; 6HR MAX TEMP:  61;

CLARKSVILLE    PTCLDY    52  47  83 E5        29.52F
6HR MIN TEMP:  51; 6HR MAX TEMP:  63;

COLUMBIA       CLEAR     55  55 100 SE6       29.50F


...WESTERN KENTUCKY...

CITY           SKY/WX    TMP DP  RH WIND       PRES   REMARKS
PADUCAH        PTCLDY    52  47  83 NE3       29.49F
6HR MIN TEMP:  51; 6HR MAX TEMP:  63;

FORT CAMPBELL  PTCLDY    53  49  88 E5        29.51F
6HR MIN TEMP:  51; 6HR MAX TEMP:  64;



...CENTRAL ARKANSAS...

CITY           SKY/WX    TMP DP  RH WIND       PRES   REMARKS
LITTLE ROCK    CLOUDY    55  55 100 CALM      29.44S
6HR MIN TEMP:  55; 6HR MAX TEMP:  62; 6HR PCP:  0.16;



SKY/WX REPORTED AS FAIR MEANS FEW OR NO CLOUDS BELOW
12 THOUSAND FEET.





USA.gov is the U.S. government's official web portal to all federal, state and local government web resources and services.